DW8427 Weather Reports


time (UTC)temp
F
wind
direction
speed
knots
gust
knots
rain 1hr
in
rain 24hr
in
rain mn
in
humidity
%
barometer
mb
20260509071555 63 113 0.0 3.5 0.00 0.00 0.00 79 1013.9
20260509070043 64 118 0.9 2.6 0.00 0.00 0.00 79 1013.9
20260509064541 64 115 0.0 2.6 0.00 0.00 0.00 79 1013.9
20260509063041 64 122 0.0 0.0 0.00 0.00 0.00 77 1013.9
20260509061547 65 128 0.0 0.0 0.00 0.00 0.00 76 1014.0
20260509060043 65 139 0.0 0.0 0.00 0.00 0.00 75 1013.9
20260509054548 66 93 0.0 0.0 0.00 0.00 0.00 74 1013.9
20260509053039 67 125 0.0 0.0 0.00 0.00 0.00 73 1013.9
20260509051539 68 90 0.0 2.6 0.00 0.00 0.00 73 1013.9
20260509050049 68 130 0.0 0.9 0.00 0.00 0.00 72 1013.9
20260509044545 69 119 0.0 0.9 0.00 0.00 0.00 71 1013.7
20260509043036 70 134 0.0 0.0 0.00 0.00 0.00 70 1013.6
20260509041536 71 151 0.0 1.7 0.00 0.00 0.00 69 1013.5
20260509040038 72 156 0.0 0.9 0.00 0.00 0.00 68 1013.4
20260509034540 73 135 0.0 0.0 0.00 0.00 0.00 66 1013.2
20260509033034 74 136 0.0 0.9 0.00 0.00 0.00 65 1013.2
20260509031535 76 106 0.0 0.0 0.00 0.00 0.00 64 1013.1
20260509030034 78 117 0.0 0.9 0.00 0.00 0.00 61 1012.9
20260509024533 80 120 0.0 0.9 0.00 0.00 0.00 57 1012.8
20260509023038 84 103 0.0 0.0 0.00 0.00 0.00 50 1012.6
20260509021531 84 326 0.0 1.7 0.00 0.00 0.00 46 1012.6
20260509020030 85 264 0.0 1.7 0.00 0.00 0.00 45 1012.6
20260509014534 84 300 0.9 5.2 0.00 0.00 0.00 46 1012.8
20260509013038 85 253 1.7 6.1 0.00 0.00 0.00 46 1012.8
20260509011526 86 275 0.0 0.9 0.00 0.00 0.00 45 1012.9
20260509010024 85 283 0.9 4.3 0.00 0.00 0.00 43 1012.9
20260509004525 85 259 0.0 5.2 0.00 0.00 0.00 43 1013.0
20260509003022 85 243 0.0 3.5 0.00 0.00 0.00 44 1013.2
20260509001520 85 217 0.0 4.3 0.00 0.00 0.00 44 1013.3
20260509000017 86 293 0.0 0.9 0.00 0.00 0.00 45 1013.4
20260508234516 85 11 0.0 0.0 0.00 0.00 0.00 47 1013.5
20260508233010 84 251 0.9 5.2 0.00 0.00 0.00 47 1013.7
20260508231509 84 318 0.0 5.2 0.00 0.00 0.00 47 1013.8
20260508230017 84 319 0.9 4.3 0.00 0.00 0.00 47 1014.1
20260508224510 83 266 0.9 4.3 0.00 0.00 0.00 47 1014.3
20260508223003 82 138 0.9 4.3 0.00 0.00 0.00 49 1014.5
20260508221606 82 271 2.6 6.1 0.00 0.00 0.00 49 1014.8
20260508220059 83 114 0.0 2.6 0.00 0.00 0.00 49 1015.0
20260508214554 81 232 0.0 2.6 0.00 0.00 0.00 51 1015.3
20260508213112 80 214 0.9 4.3 0.00 0.00 0.00 51 1015.4
20260508211551 81 250 0.0 1.7 0.00 0.00 0.00 53 1015.6
20260508210049 79 329 0.0 5.2 0.00 0.00 0.00 54 1015.8
20260508204550 79 4 0.0 4.3 0.00 0.00 0.00 54 1016.0
20260508203052 78 295 0.0 0.9 0.00 0.00 0.00 55 1016.2
20260508201543 77 100 0.0 0.9 0.00 0.00 0.00 56 1016.3
20260508200049 76 287 0.0 3.5 0.00 0.00 0.00 57 1016.4
20260508194538 75 292 0.0 3.5 0.00 0.00 0.00 59 1016.7
20260508193106 73 8 0.0 0.9 0.00 0.00 0.00 59 1016.8
20260508191534 72 293 0.0 2.6 0.00 0.00 0.00 63 1016.9
20260508190037 72 96 0.0 3.5 0.00 0.00 0.00 64 1017.0
20260508184531 71 284 0.0 3.5 0.00 0.00 0.00 63 1017.1
20260508183028 70 290 0.0 3.5 0.00 0.00 0.00 65 1017.1
20260508181528 70 219 0.0 0.9 0.00 0.00 0.00 65 1017.3
20260508180028 67 135 0.0 4.3 0.00 0.00 0.00 69 1017.2
20260508174541 66 93 0.0 3.5 0.00 0.00 0.00 70 1017.5
20260508173020 66 256 0.0 0.9 0.00 0.00 0.00 72 1017.6
20260508171519 64 136 0.0 3.5 0.00 0.00 0.00 74 1017.7
20260508170016 61 104 0.9 4.3 0.00 0.00 0.00 77 1017.6
20260508164514 61 259 0.0 4.3 0.00 0.00 0.00 79 1017.5
20260508163011 59 152 0.0 2.6 0.00 0.00 0.00 81 1017.5
20260508161534 58 191 0.9 4.3 0.00 0.00 0.00 81 1017.5
20260508160010 58 122 0.0 5.2 0.00 0.00 0.00 82 1017.6
20260508154510 56 110 0.0 5.2 0.00 0.00 0.00 84 1017.6
20260508153011 55 115 0.0 4.3 0.00 0.00 0.00 87 1017.6
20260508151528 54 106 0.9 4.3 0.00 0.00 0.00 86 1017.6
20260508150010 54 108 2.6 5.2 0.00 0.00 0.00 87 1017.4
20260508144504 53 110 1.7 7.0 0.00 0.00 0.00 88 1017.3
20260508143004 53 108 0.9 5.2 0.00 0.00 0.00 88 1017.3
20260508141505 53 122 0.9 4.3 0.00 0.00 0.00 88 1017.2
20260508140111 53 112 0.9 4.3 0.00 0.00 0.00 89 1016.9
20260508134619 53 143 0.9 4.3 0.00 0.00 0.00 89 1016.8
20260508133111 53 109 0.9 2.6 0.00 0.00 0.00 89 1016.8
20260508131554 53 139 0.0 3.5 0.00 0.00 0.00 89 1016.7
20260508130051 53 144 0.0 3.5 0.00 0.00 0.00 89 1016.6
20260508124549 53 109 0.0 1.7 0.00 0.00 0.00 89 1016.5
20260508123048 53 131 0.0 2.6 0.00 0.00 0.00 89 1016.5
20260508121550 53 120 0.0 2.6 0.00 0.00 0.00 89 1016.2
20260508120050 54 136 0.0 1.7 0.00 0.00 0.00 88 1016.3
20260508114542 54 116 0.0 1.7 0.00 0.00 0.00 88 1016.2
20260508113052 54 109 0.0 2.6 0.00 0.00 0.00 88 1016.1
20260508111539 54 169 0.0 3.5 0.00 0.00 0.00 88 1016.1
20260508110038 54 133 0.0 3.5 0.00 0.00 0.00 87 1016.0
20260508104536 55 117 0.0 1.7 0.00 0.00 0.00 87 1016.1
20260508103036 55 146 0.0 1.7 0.00 0.00 0.00 87 1016.1
20260508101542 55 105 0.0 1.7 0.00 0.00 0.00 86 1016.1
20260508100031 56 101 0.0 0.9 0.00 0.00 0.00 86 1016.1
20260508094529 56 86 0.0 0.9 0.00 0.00 0.00 86 1016.0
20260508093030 56 104 0.0 2.6 0.00 0.00 0.00 86 1016.0
20260508091545 56 101 0.0 1.7 0.00 0.00 0.00 85 1016.1
20260508090024 56 129 0.0 2.6 0.00 0.00 0.00 85 1015.9
20260508084521 56 108 0.0 1.7 0.00 0.00 0.00 85 1015.8
20260508083029 57 105 0.0 2.6 0.00 0.00 0.00 84 1015.9
20260508081517 57 127 0.9 4.3 0.00 0.00 0.00 84 1015.8
20260508080013 58 138 0.9 5.2 0.00 0.00 0.00 83 1015.8
20260508074510 59 101 0.0 3.5 0.00 0.00 0.00 83 1015.6
20260508073009 60 124 0.0 5.2 0.00 0.00 0.00 83 1015.6